This is the latest recevied weather packets stored in our database for station/object K4FDS. If no packets are shown the sender has not sent any weather packets the latest 10 day(s).
| Time | Temp. | Humidity | Pressure | Rain* | Wind** | Luminosity | Snow |
|---|---|---|---|---|---|---|---|
| 1777598360 | 13.33° C | 47% | 1009.5 hPa | 0 mm | 0 m/s | - | - |
| 1777596560 | 15.56° C | 40% | 1007.6 hPa | 0 mm | 0.45 m/s, 324° | - | - |
| 1777594760 | 15.56° C | 40% | 1007.6 hPa | 0 mm | 0.45 m/s, 324° | - | - |
| 1777592960 | 15.56° C | 40% | 1007.6 hPa | 0 mm | 0.45 m/s, 324° | - | - |
| 1777591160 | 16.11° C | 39% | 1007.3 hPa | 0 mm | 0.45 m/s, 326° | - | - |
| 1777589360 | 16.67° C | 39% | 1007 hPa | 0 mm | 0.45 m/s, 325° | - | - |
| 1777587560 | 16.67° C | 39% | 1007 hPa | 0 mm | 0.45 m/s, 325° | - | - |
| 1777585760 | 17.22° C | 40% | 1006.7 hPa | 0 mm | 0.45 m/s, 310° | - | - |
| 1777583960 | 17.78° C | 36% | 1006.6 hPa | 0 mm | 0.45 m/s, 313° | - | - |
| 1777582160 | 17.78° C | 36% | 1006.6 hPa | 0 mm | 0.45 m/s, 313° | - | - |
| 1777580360 | 18.33° C | 36% | 1006.4 hPa | 0 mm | 0.89 m/s, 267° | - | - |
| 1777578560 | 19.44° C | 37% | 1005.8 hPa | 0 mm | 0.89 m/s, 349° | - | - |
| 1777576760 | 19.44° C | 39% | 1005.7 hPa | 0 mm | 0.89 m/s, 358° | - | - |
| 1777574960 | 19.44° C | 36% | 1005.8 hPa | 0 mm | 0.89 m/s, 306° | - | - |
| 1777573160 | 19.44° C | 40% | 1005.7 hPa | 0 mm | 0.89 m/s, 358° | - | - |
| 1777571360 | 18.89° C | 41% | 1005.8 hPa | 0 mm | 0.89 m/s, 291° | - | - |
| 1777569560 | 18.89° C | 44% | 1006.1 hPa | 0 mm | 1.34 m/s, 281° | - | - |
| 1777567760 | 18.33° C | 48% | 1006.2 hPa | 0 mm | 0.89 m/s, 3° | - | - |
| 1777565960 | 17.78° C | 47% | 1006.5 hPa | 0 mm | 0.89 m/s, 300° | - | - |
| 1777564160 | 17.78° C | 51% | 1006.6 hPa | 0 mm | 0.89 m/s, 329° | - | - |
| 1777562360 | 17.22° C | 55% | 1006.8 hPa | 0 mm | 0.89 m/s, 319° | - | - |
| 1777560560 | 15.56° C | 62% | 1007.4 hPa | 0 mm | 0.45 m/s, 308° | - | - |
| 1777558760 | 15.56° C | 62% | 1007.4 hPa | 0 mm | 0.89 m/s, 282° | - | - |
| 1777556960 | 15° C | 69% | 1007.1 hPa | 0 mm | 0.45 m/s, 5° | - | - |
| 1777555160 | 13.33° C | 72% | 1007.7 hPa | 0 mm | 0 m/s | - | - |
* Rain latest hour (hover to see other rain measurements)
** Current wind speed in m/s (hover to see current wind gust speed)